Cincinnati, OH

7:48 PM EST on December 05, 2019 (GMT -0500)
Cincinnati Municipal-Lunken

Weather History for KLUK - September, 2019

Change the Weather History Date:

Saturday, September 28, 2019

  Actual Average Record
Temperature  
Mean Temperature 80 °F -  
Max Temperature 91 °F 73 °F 92 °F (1959)
Min Temperature 68 °F 51 °F 38 °F (1989)
Cooling Degree Days 14    
Growing Degree Days 30 (Base 50)    
Moisture  
Dew Point 65 °F    
Average Humidity 69    
Maximum Humidity 96    
Minimum Humidity 34    
Precipitation  
Precipitation 0.00 in - - ()
Sea Level Pressure  
Sea Level Pressure 30.02 in    
Wind  
Wind Speed 4 mph ()    
Max Wind Speed 15 mph    
Max Gust Speed 26 mph    
Visibility 9.9 miles    
Events      
Averages and records for this station are not official NWS values.
T = Trace of Precipitation, MM = Missing Value Source: Averaged Metar Reports

Daily Weather History Graph

Daily Weather History Graph

Search for Another Location

Airport or City:

Astronomy

Sep. 28, 2019 Rise Set
Actual Time 7:30 AM EDT 7:25 PM EDT
Civil Twilight 7:04 AM EDT 7:52 PM EDT
Nautical Twilight 6:32 AM EDT 8:23 PM EDT
Astronomical Twilight 6:01 AM EDT 8:54 PM EDT
Moon 7:06 AM EDT (9/28) 7:50 PM EDT (9/28)
Length of Visible Light 12h 48m
Length of Day
11h 54m
Waning Crescent, 0% of the Moon is Illuminated
Sep 28
Waning Crescent
Sep 28
New
Oct 5
First Quarter
Oct 13
Full
Oct 21
Last Quarter

Hourly Weather History & Observations

Time (EDT) Temp. Heat Index Dew Point Humidity Pressure Visibility Wind Dir Wind Speed Gust Speed Precip Events Conditions
12:53 AM 68.0 °F - 66.0 °F 93% 29.89 in 10.0 mi South 3.5 mph - N/A   Clear
1:53 AM 68.0 °F - 66.0 °F 93% 29.90 in 10.0 mi South 3.5 mph - N/A   Clear
2:53 AM 68.0 °F - 64.9 °F 90% 29.92 in 10.0 mi Calm Calm - N/A   Clear
3:53 AM 69.1 °F - 66.0 °F 90% 29.93 in 10.0 mi SSE 4.6 mph - N/A   Scattered Clouds
4:53 AM 70.0 °F - 66.0 °F 87% 29.94 in 10.0 mi Calm Calm - N/A   Mostly Cloudy
5:53 AM 68.0 °F - 66.0 °F 93% 29.95 in 10.0 mi Calm Calm - N/A   Scattered Clouds
6:53 AM 69.1 °F - 66.9 °F 93% 29.99 in 10.0 mi Calm Calm - 0.00 in   Mostly Cloudy
7:53 AM 70.0 °F - 66.9 °F 90% 30.01 in 10.0 mi Calm Calm - N/A   Mostly Cloudy
8:53 AM 71.1 °F - 70.0 °F 96% 30.02 in 8.0 mi Calm Calm - N/A   Scattered Clouds
9:53 AM 78.1 °F - 69.1 °F 74% 30.04 in 10.0 mi South 4.6 mph - N/A   Clear
10:53 AM 82.0 °F 85.9 °F 70.0 °F 67% 30.05 in 10.0 mi South 4.6 mph - N/A   Clear
11:53 AM 84.9 °F 88.8 °F 69.1 °F 59% 30.04 in 10.0 mi South 9.2 mph - N/A   Clear
12:53 PM 88.0 °F 90.7 °F 66.9 °F 49% 30.04 in 10.0 mi SW 13.8 mph - N/A   Clear
1:53 PM 90.0 °F 91.7 °F 64.9 °F 43% 30.04 in 10.0 mi SSW 15.0 mph - N/A   Scattered Clouds
2:53 PM 91.0 °F 91.9 °F 63.0 °F 39% 30.01 in 10.0 mi SSW 13.8 mph 26.5 mph N/A   Scattered Clouds
3:53 PM 91.0 °F 91.5 °F 62.1 °F 38% 30.01 in 10.0 mi SSW 11.5 mph - N/A   Scattered Clouds
4:53 PM 91.9 °F 91.5 °F 60.1 °F 34% 30.01 in 10.0 mi SW 12.7 mph - N/A   Partly Cloudy
5:53 PM 89.1 °F 88.2 °F 59.0 °F 36% 30.03 in 10.0 mi WSW 9.2 mph - N/A   Overcast
6:53 PM 86.0 °F 86.1 °F 61.0 °F 43% 30.04 in 10.0 mi WNW 5.8 mph - N/A   Scattered Clouds
7:53 PM 77.0 °F - 66.0 °F 69% 30.06 in 10.0 mi Calm Calm - N/A   Clear
8:53 PM 80.1 °F 82.1 °F 66.0 °F 62% 30.09 in 10.0 mi NE 13.8 mph - N/A   Scattered Clouds
9:53 PM 77.0 °F - 64.0 °F 64% 30.12 in 10.0 mi NE 8.1 mph - N/A   Partly Cloudy
10:53 PM 75.0 °F - 64.0 °F 69% 30.14 in 10.0 mi NNE 5.8 mph - N/A   Clear
11:53 PM 72.0 °F - 64.0 °F 76% 30.15 in 10.0 mi NE 3.5 mph - N/A   Clear